[[{"header":{"parameterUnit":"m.s-1","parameterCategory":1,"la1":30.2991,"la2":30.254,"lo1":-89.0895,"lo2":-89.0444,"dy":0.0017,"dx":0.0017,"nx":28,"ny":28,"refTime":"2024-05-13T03:00:00:Z","depth":0,"parameterNumber":2,"parameterNumberName":"U-component_of_WINDS"},"data":[0,0,0,0,0,0,0,0,0,0,0,0,0,0,0,0,0,0,0,0,0,0,0,0,0,0,0,0,0,0,0,0,0,0,0,0,0,0,0,0,0,0,0,0,0,0,0,0,0,0,0,0,0,0,0,0,0,0,2.5349,2.535,0,2.5392,2.5392,2.5393,2.5428,2.5429,2.5429,2.5429,2.5472,2.5473,2.5474,0,0,0,0,0,0,0,0,0,0,0,0,0,2.5298,2.5299,2.5349,2.535,2.535,2.5392,2.5392,2.5393,2.5428,2.5429,2.5429,2.543,2.5472,2.5473,2.5474,0,0,0,0,0,0,0,0,0,0,0,0,0,2.5329,2.5299,2.5349,2.5373,2.5375,2.5391,2.5392,2.5393,2.5428,2.5429,2.5429,2.543,2.5471,2.5473,2.5474,2.5469,0,0,2.5477,2.5478,0,0,0,0,0,0,0,0,2.5327,2.533,2.5369,2.5371,2.5374,2.5405,2.539,2.5418,2.5428,2.5408,2.5429,2.543,2.5449,2.5452,2.5459,2.5471,2.5473,2.5477,2.5478,2.5479,2.5479,0,0,0,0,0,0,0,2.5325,2.5329,2.5366,2.5369,2.5373,2.5381,2.5386,2.5396,2.5425,2.541,2.5413,2.5417,2.5451,2.5458,2.546,2.5474,2.5477,2.5478,2.5479,2.548,2.5486,2.5485,0,0,0,0,0,0,2.5319,2.5327,2.5365,2.5367,2.5352,2.5382,2.5387,2.5395,2.5425,2.543,2.5417,2.5419,2.5455,2.5459,2.5462,2.5459,2.5479,2.548,2.548,2.5486,2.5486,2.5485,0,0,0,0,0,0,2.5318,2.5322,2.5363,2.5348,2.5354,2.5382,2.539,2.5395,2.5402,2.543,2.5435,2.5418,2.5456,2.546,2.5468,2.5461,2.548,2.5481,2.5487,2.5486,2.5485,2.5454,0,0,0,0,0,0,2.5316,2.5321,2.532,2.5348,2.5354,2.5368,2.539,2.5396,2.5404,2.5407,2.5433,2.5438,2.5457,2.5466,2.5469,2.5463,2.5482,2.5488,2.5487,2.5486,2.5455,2.5452,2.5449,0,0,0,0,0,2.5314,2.5309,2.532,2.5324,2.5353,2.5367,2.5371,2.5393,2.5404,2.5402,2.542,2.5437,2.5462,2.5466,2.547,2.5465,2.5488,2.5487,2.5486,2.5457,2.5453,2.5449,0,0,0,0,0,0,2.5279,2.5313,2.5325,2.5329,2.5345,2.5373,2.5372,2.5388,2.5401,2.5404,2.5431,2.5436,2.5441,2.5453,2.5458,2.5463,2.5477,2.5477,2.5454,2.545,2.5447,2.5444,2.5483,0,0,0,0,0,2.5272,2.5281,2.531,2.531,2.5317,2.5343,2.535,2.5366,2.5384,2.5391,2.541,2.5426,2.5438,2.5445,2.5457,2.5458,2.5464,2.5456,2.5453,2.545,2.5449,2.5452,2.5449,2.5481,2.5481,2.5481,0,0,2.5256,2.5276,2.528,2.5303,2.5318,2.5326,2.5349,2.5357,2.5364,2.5392,2.54,2.5415,2.5435,2.5439,2.5442,2.545,2.5442,2.5449,2.5446,2.5447,2.545,2.5447,2.5444,2.548,2.5481,2.5481,0,0,2.5233,2.5249,2.5251,2.5266,2.5288,2.5305,2.5306,2.5332,2.5343,2.5352,2.5374,2.5382,2.5401,2.5415,2.5425,2.5408,2.5424,2.5411,2.5394,2.5396,2.5394,2.5391,2.5386,2.5384,2.541,2.541,2.541,0,2.5211,2.5226,2.525,2.5257,2.5267,2.5294,2.5297,2.531,2.5334,2.5341,2.5349,2.5375,2.539,2.5399,2.5395,2.5401,2.5403,2.5408,2.5392,2.539,2.5389,2.5384,2.5381,2.5409,2.5409,2.5409,2.5409,0,2.5198,2.5208,2.5207,2.5231,2.5241,2.5245,2.5271,2.5278,2.5293,2.531,2.5319,2.5339,2.5356,2.5359,2.5374,2.537,2.5374,2.5387,2.5402,2.5383,2.5379,2.5377,2.5406,2.5407,2.5407,2.5408,0,0,2.5153,2.5191,2.5191,2.5202,2.5229,2.5237,2.5243,2.5261,2.5266,2.5283,2.5289,2.5305,2.5318,2.5329,2.5345,2.5347,2.5333,2.536,2.5361,2.5354,2.5331,2.5321,2.5318,2.5344,2.5344,2.5344,2.5329,0,2.5134,2.5147,2.517,2.5176,2.5186,2.5212,2.5218,2.5235,2.5251,2.5262,2.5279,2.5291,2.5306,2.5313,2.5316,2.5334,2.5329,2.5336,2.535,2.535,2.5344,2.5316,2.5305,2.529,2.5328,2.5327,2.5327,0,2.5114,2.513,2.5136,2.5164,2.5169,2.5173,2.5192,2.5201,2.5221,2.5233,2.5246,2.5264,2.5273,2.5287,2.5299,2.5303,2.531,2.532,2.5321,2.5323,2.5337,2.5317,2.5286,2.5284,2.5325,2.5325,2.5325,0,2.5081,2.5103,2.5111,2.512,2.5152,2.5155,2.5168,2.5189,2.5198,2.5214,2.5221,2.5237,2.5246,2.5258,2.5281,2.5289,2.5291,2.5307,2.5301,2.53,2.53,2.5299,2.5269,2.5304,2.5304,2.5304,2.5304,0,2.5057,2.506,2.5097,2.5101,2.5106,2.5133,2.5136,2.5152,2.5171,2.5179,2.5203,2.521,2.524,2.525,2.5268,2.5276,2.5279,2.5289,2.5294,2.5287,2.5286,2.5292,2.5293,2.5304,2.5304,2.5304,2.5304,0,2.5021,2.5045,2.5055,2.5085,2.5093,2.5095,2.512,2.5126,2.5144,2.5154,2.5158,2.5186,2.52,2.5224,2.5244,2.5256,2.526,2.5268,2.5253,2.5256,2.5249,2.525,2.5222,2.522,2.5256,2.5256,2.5255,0,2.5004,2.5007,2.5038,2.5046,2.5058,2.507,2.508,2.5107,2.5116,2.514,2.5143,2.5159,2.5173,2.5194,2.5216,2.5232,2.524,2.523,2.5243,2.5236,2.524,2.524,2.524,2.5226,2.5226,2.5225,2.5225,0,2.4972,2.4984,2.4998,2.5016,2.5028,2.5043,2.5059,2.5064,2.5095,2.5104,2.5119,2.513,2.5152,2.5167,2.5186,2.52,2.5218,2.5221,2.5221,2.5213,2.5205,2.521,2.5245,2.5221,2.5222,2.5222,2.5222,2.5222,2.4945,2.495,2.4973,2.4987,2.5003,2.5018,2.5025,2.5044,2.5057,2.5077,2.5092,2.5106,2.5127,2.5155,2.5168,2.518,2.5188,2.5187,2.5187,2.5186,2.5183,2.5203,2.5183,2.5183,2.5183,2.5184,2.5184,0,2.4915,2.4931,2.4944,2.4967,2.4979,2.4996,2.5015,2.5024,2.5036,2.5054,2.5068,2.5085,2.5101,2.5125,2.5142,2.5146,2.5155,2.515,2.515,2.5153,2.5175,2.5174,2.5143,2.5143,2.5143,2.5143,2.5143,2.5143,2.49,2.4909,2.4924,2.4941,2.4958,2.4972,2.4982,2.4996,2.5011,2.503,2.5043,2.5059,2.5079,2.5099,2.5114,2.512,2.5126,2.5118,2.5127,2.5147,2.5151,2.5155,2.5154,2.5119,2.5119,2.5104,2.5104,2.5104]},{"header":{"parameterUnit":"m.s-1","parameterCategory":1,"la1":30.2991,"la2":30.254,"lo1":-89.0895,"lo2":-89.0444,"dy":0.0017,"dx":0.0017,"nx":28,"ny":28,"refTime":"2024-05-13T03:00:00:Z","depth":0,"parameterNumber":3,"parameterNumberName":"V-component_of_WINDS"},"data":[0,0,0,0,0,0,0,0,0,0,0,0,0,0,0,0,0,0,0,0,0,0,0,0,0,0,0,0,0,0,0,0,0,0,0,0,0,0,0,0,0,0,0,0,0,0,0,0,0,0,0,0,0,0,0,0,0,0,3.6611,3.6611,0,3.6618,3.6618,3.6618,3.6623,3.6623,3.6623,3.6624,3.663,3.663,3.663,0,0,0,0,0,0,0,0,0,0,0,0,0,3.6601,3.6601,3.6611,3.6611,3.6611,3.6618,3.6618,3.6618,3.6623,3.6623,3.6624,3.6624,3.663,3.663,3.663,0,0,0,0,0,0,0,0,0,0,0,0,0,3.6607,3.6602,3.6611,3.6614,3.6615,3.6618,3.6618,3.6618,3.6623,3.6623,3.6624,3.6624,3.663,3.663,3.663,3.663,0,0,3.6631,3.6631,0,0,0,0,0,0,0,0,3.6606,3.6607,3.6614,3.6614,3.6615,3.662,3.6617,3.6622,3.6623,3.662,3.6624,3.6624,3.6626,3.6627,3.6628,3.663,3.663,3.6631,3.6631,3.6631,3.6631,0,0,0,0,0,0,0,3.6606,3.6607,3.6613,3.6614,3.6614,3.6616,3.6616,3.6618,3.6623,3.662,3.6621,3.6622,3.6627,3.6628,3.6628,3.663,3.6631,3.6631,3.6631,3.6631,3.6632,3.6632,0,0,0,0,0,0,3.6605,3.6606,3.6613,3.6614,3.6611,3.6616,3.6617,3.6618,3.6623,3.6624,3.6622,3.6622,3.6627,3.6628,3.6628,3.6628,3.6631,3.6631,3.6631,3.6632,3.6632,3.6632,0,0,0,0,0,0,3.6605,3.6606,3.6613,3.661,3.6611,3.6616,3.6617,3.6618,3.6619,3.6624,3.6624,3.6622,3.6628,3.6628,3.6629,3.6628,3.6631,3.6631,3.6632,3.6632,3.6632,3.6627,0,0,0,0,0,0,3.6605,3.6606,3.6606,3.661,3.6611,3.6614,3.6617,3.6618,3.662,3.662,3.6624,3.6625,3.6628,3.6629,3.6629,3.6629,3.6632,3.6632,3.6632,3.6632,3.6627,3.6627,3.6626,0,0,0,0,0,3.6604,3.6604,3.6606,3.6606,3.6611,3.6614,3.6614,3.6618,3.662,3.6619,3.6622,3.6625,3.6628,3.6629,3.663,3.6629,3.6632,3.6632,3.6632,3.6628,3.6627,3.6626,0,0,0,0,0,0,3.6599,3.6604,3.6606,3.6608,3.661,3.6615,3.6615,3.6617,3.6619,3.662,3.6624,3.6625,3.6625,3.6627,3.6628,3.6628,3.6631,3.663,3.6627,3.6627,3.6626,3.6626,3.6632,0,0,0,0,0,3.6598,3.66,3.6604,3.6605,3.6606,3.661,3.6611,3.6614,3.6617,3.6618,3.6621,3.6623,3.6625,3.6626,3.6628,3.6628,3.6628,3.6627,3.6627,3.6626,3.6626,3.6626,3.6626,3.6631,3.6631,3.6631,0,0,3.6596,3.6599,3.66,3.6604,3.6606,3.6608,3.6611,3.6613,3.6614,3.6618,3.6619,3.6621,3.6624,3.6625,3.6625,3.6626,3.6625,3.6626,3.6626,3.6626,3.6626,3.6626,3.6625,3.6631,3.6631,3.6631,0,0,3.6592,3.6595,3.6596,3.6598,3.6602,3.6605,3.6605,3.6609,3.6611,3.6612,3.6615,3.6616,3.6619,3.6621,3.6623,3.662,3.6622,3.662,3.6618,3.6618,3.6617,3.6617,3.6616,3.6616,3.662,3.662,3.662,0,3.6589,3.6592,3.6596,3.6597,3.6599,3.6603,3.6604,3.6605,3.6609,3.661,3.6612,3.6615,3.6617,3.6619,3.6618,3.6619,3.6619,3.662,3.6617,3.6617,3.6617,3.6616,3.6615,3.662,3.662,3.662,3.662,0,3.6588,3.6589,3.659,3.6593,3.6595,3.6596,3.66,3.6601,3.6603,3.6606,3.6607,3.661,3.6612,3.6613,3.6615,3.6614,3.6615,3.6616,3.6619,3.6616,3.6615,3.6615,3.662,3.662,3.662,3.662,0,0,3.6582,3.6588,3.6588,3.6589,3.6593,3.6595,3.6596,3.6598,3.6599,3.6602,3.6602,3.6605,3.6606,3.6608,3.661,3.661,3.6608,3.6612,3.6612,3.6611,3.6607,3.6606,3.6605,3.661,3.661,3.6609,3.6607,0,3.6579,3.6581,3.6585,3.6586,3.6587,3.6591,3.6592,3.6595,3.6597,3.6598,3.6601,3.6602,3.6605,3.6606,3.6606,3.6608,3.6607,3.6608,3.661,3.661,3.6609,3.6605,3.6603,3.6601,3.6607,3.6607,3.6607,0,3.6577,3.6579,3.658,3.6584,3.6585,3.6586,3.6588,3.659,3.6592,3.6594,3.6596,3.6598,3.6599,3.6601,3.6603,3.6604,3.6604,3.6606,3.6606,3.6606,3.6608,3.6605,3.66,3.66,3.6606,3.6606,3.6606,0,3.6572,3.6575,3.6577,3.6578,3.6583,3.6583,3.6585,3.6588,3.6589,3.6591,3.6592,3.6594,3.6595,3.6597,3.66,3.6601,3.6601,3.6603,3.6602,3.6602,3.6602,3.6602,3.6597,3.6602,3.6602,3.6602,3.6602,0,3.6569,3.6569,3.6575,3.6575,3.6576,3.658,3.658,3.6583,3.6585,3.6586,3.659,3.659,3.6594,3.6596,3.6598,3.6599,3.6599,3.66,3.6601,3.66,3.66,3.6601,3.6601,3.6602,3.6602,3.6602,3.6602,0,3.6564,3.6567,3.6569,3.6573,3.6574,3.6575,3.6578,3.6579,3.6581,3.6583,3.6583,3.6587,3.6588,3.6592,3.6594,3.6596,3.6596,3.6597,3.6595,3.6595,3.6594,3.6594,3.6589,3.6589,3.6595,3.6595,3.6594,0,3.6562,3.6562,3.6567,3.6568,3.6569,3.6571,3.6572,3.6576,3.6577,3.6581,3.6581,3.6583,3.6584,3.6587,3.659,3.6591,3.6593,3.6591,3.6593,3.6592,3.6593,3.6592,3.6593,3.659,3.659,3.659,3.659,0,3.6557,3.6559,3.6561,3.6564,3.6565,3.6567,3.6569,3.657,3.6574,3.6575,3.6577,3.6579,3.6581,3.6583,3.6585,3.6587,3.6589,3.659,3.6589,3.6589,3.6587,3.6588,3.6594,3.659,3.659,3.659,3.659,3.659,3.6554,3.6554,3.6558,3.656,3.6562,3.6564,3.6565,3.6567,3.6569,3.6571,3.6573,3.6575,3.6577,3.6581,3.6582,3.6583,3.6585,3.6584,3.6584,3.6584,3.6584,3.6587,3.6584,3.6584,3.6584,3.6584,3.6584,0,3.655,3.6552,3.6554,3.6557,3.6558,3.6561,3.6563,3.6564,3.6566,3.6568,3.657,3.6572,3.6573,3.6576,3.6578,3.6578,3.658,3.6579,3.6579,3.6579,3.6583,3.6583,3.6578,3.6578,3.6578,3.6578,3.6578,3.6578,3.6548,3.6549,3.6551,3.6553,3.6555,3.6557,3.6558,3.656,3.6562,3.6564,3.6566,3.6568,3.657,3.6572,3.6574,3.6575,3.6575,3.6574,3.6575,3.6578,3.6579,3.6579,3.6579,3.6574,3.6574,3.6572,3.6572,3.6572]}]]